Home   Weather   Khabarovsk   Past weeks

Flag for Russia Past Weather in Khabarovsk, Russia — Yesterday and Last 2 Weeks

Now
39 °F

Passing clouds.


Feels Like: 35 °F
Forecast: 42 / 49 °F
Wind: 6 mph from East

Location: Habarovsk

Current Time: Apr 25, 2017 at 3:42:36 am

Latest Report: Apr 25, 2017 at 3:00 am


Visibility: N/A

Pressure: 29.92 "Hg

Humidity: 93%

Dew Point: 37 °F

Location of KhabarovskLocation

Past Weather in Khabarovsk — Graph

°F

Khabarovsk Temperature Yesterday

Maximum temperature yesterday: 59 °F (at 5:30 pm)
Minimum temperature yesterday: 41 °F (at 3:30 am)
Average temperature yesterday: 46 °F

High & Low Weather Summary for the Past Weeks

 TemperatureHumidityPressure
High59 °F (Apr 24, 5:30 pm)100% (Apr 15, 6:00 am)30.01 "Hg (Apr 15, 6:00 am)
Low19 °F (Apr 13, 6:00 am)14% (Apr 12, 10:30 am)29.27 "Hg (Apr 15, 2:30 pm)
Average41 °F55%29.68 "Hg
* Reported Apr 10 2:00 am — Apr 25 2:30 am, Khabarovsk, Weather by CustomWeather, © 2017

Note: Actual official high and low records may vary slightly from our data, if they occured in-between our weather recording intervals... More about our weather records

Advertising

Khabarovsk Weather History for the Previous 24 Hours

Scroll right to see more
 ConditionsComfort  
Time TempWeatherWind HumidityBarometerVisibility
2:30 am
Tue, Apr 25
39 °FPassing clouds.8 mph93%29.92 "HgN/A
2:00 am39 °FPassing clouds.13 mph93%29.92 "HgN/A
1:30 am39 °FPassing clouds.10 mph100%29.92 "HgN/A
1:00 am39 °FPassing clouds.10 mph100%29.92 "HgN/A
12:30 am39 °FPassing clouds.15 mph100%29.95 "HgN/A
12:00 am41 °FPassing clouds.15 mph93%29.95 "HgN/A
11:30 pm
Mon, Apr 24
41 °FPassing clouds.15 mph93%29.98 "HgN/A
11:00 pm41 °FPassing clouds.15 mph93%29.98 "HgN/A
10:30 pm43 °FClear.13 mph93%29.98 "Hg10 mi
10:00 pm43 °FClear.10 mph87%30.01 "Hg10 mi
9:30 pm45 °FClear.13 mph81%29.98 "Hg10 mi
9:00 pm45 °FClear.13 mph81%29.98 "Hg10 mi
8:30 pm45 °FClear.10 mph81%30.01 "Hg10 mi
8:00 pm46 °FSunny.8 mph76%29.98 "Hg10 mi
7:30 pm48 °FSunny.8 mph71%29.98 "Hg10 mi
7:00 pm50 °FSunny.8 mph67%29.98 "Hg10 mi
6:30 pm52 °FScattered clouds.10 mph58%29.98 "HgN/A
6:00 pm57 °FScattered clouds.8 mph27%29.98 "HgN/A
5:30 pm59 °FScattered clouds.13 mph23%29.98 "HgN/A
5:00 pm57 °FScattered clouds.10 mph29%29.98 "HgN/A
4:30 pm57 °FScattered clouds.13 mph29%29.98 "HgN/A
4:00 pm57 °FScattered clouds.15 mph31%29.98 "HgN/A
3:30 pm57 °FPassing clouds.15 mph33%29.98 "HgN/A
3:00 pm55 °FPassing clouds.15 mph38%29.98 "HgN/A
2:30 pm55 °FPassing clouds.15 mph44%29.98 "HgN/A
2:00 pm54 °FPassing clouds.10 mph47%29.98 "HgN/A
1:30 pm52 °FScattered clouds.10 mph58%29.98 "HgN/A
1:00 pm50 °FScattered clouds.10 mph67%29.98 "HgN/A
12:30 pm48 °FScattered clouds.8 mph76%29.98 "HgN/A
12:00 pm45 °FSprinkles. Partly sunny.6 mph87%30.01 "HgN/A
11:30 am43 °FSprinkles. Partly sunny.6 mph87%29.98 "HgN/A
11:00 am43 °FSprinkles. Partly sunny.8 mph87%29.98 "HgN/A
10:30 am41 °FPartly sunny.6 mph93%29.98 "HgN/A
10:00 am41 °FSprinkles. Partly sunny.8 mph87%29.98 "HgN/A
9:30 am41 °FPartly sunny.8 mph87%29.98 "HgN/A
9:00 am41 °FSprinkles. Scattered clouds.8 mph87%29.95 "HgN/A
8:30 am41 °FSprinkles. Scattered clouds.8 mph87%29.95 "HgN/A
8:00 am41 °FSprinkles. Scattered clouds.8 mph87%29.95 "HgN/A
7:30 am43 °FSprinkles. Scattered clouds.8 mph81%29.92 "HgN/A
6:30 am41 °FSprinkles. Scattered clouds.8 mph76%29.92 "HgN/A
6:00 am41 °FPassing clouds.6 mph70%29.92 "HgN/A
5:30 am41 °FPassing clouds.6 mph70%29.89 "HgN/A
5:00 am41 °FPassing clouds.3 mph70%29.89 "HgN/A
4:30 am41 °FPassing clouds.3 mph70%29.89 "HgN/A
4:00 am41 °FPassing clouds.6 mph70%29.89 "HgN/A
3:30 am41 °FPassing clouds.3 mph70%29.89 "HgN/A
3:00 am43 °FPassing clouds.6 mph66%29.89 "HgN/A
Weather by CustomWeather, © 2017

See weather overviewHow to use our weather pages